Zurück zum Katalog

DELTA 1 DEB

AktivPO
NORAD 42555·DEBRIS·🇺🇸 United States

Gestartet Jul 23, 1972 von Vandenberg Space Force Base

Loading…

Nächste Überflüge (nächste 24 Stunden)

TLE

AlterndSource: Space-Track

Epoche: Sep 6, 2026, 12:03 UTC

1 42555U 72058JN  26249.50245428  .00000029  00000-0  45063-4 0  9999
2 42555  97.2150 141.2039 0539491 237.2587 117.5458 13.39747549624625

Verfolge DELTA 1 DEB in Echtzeit mit AllMySat

Download on the App Store